Location: Cheching
(60.0667°N, 164.2167°W)
Time: 23:47:34
(UTC+00:00)

NUDT-PHONESAT - Visible Passes

Search period start: 23 January 2021 00:00
Search period end: 02 February 2021 00:00
Orbit: 482 x 497 km, 97.4° (Epoch: 23 January)

Date Brightness Start Highest point End Pass type
(mag) Time Alt. Az. Time Alt. Az. Time Alt. Az.
23 Jan ? 04:24:51 10° SSE 04:28:30 88° WSW 04:32:13 10° NNW visible
23 Jan ? 06:00:37 10° WSW 06:02:39 14° W 06:04:42 10° NW visible
23 Jan ? 17:16:35 10° NNE 17:19:55 32° E 17:23:14 10° SSE visible
24 Jan ? 04:02:09 10° SSE 04:05:44 58° ENE 04:09:22 10° N visible
24 Jan ? 05:36:44 10° SW 05:39:36 21° W 05:42:30 10° NW visible
24 Jan ? 16:54:04 10° NE 16:56:56 21° E 16:59:47 10° SE visible
24 Jan ? 18:27:11 10° N 18:30:50 61° WNW 18:34:27 10° SSW visible
25 Jan ? 03:39:37 10° SE 03:43:01 37° ENE 03:46:27 10° N visible
25 Jan ? 05:13:18 10° SSW 05:16:37 33° W 05:19:59 10° NNW visible
25 Jan ? 16:31:54 10° NE 16:33:53 14° E 16:35:51 10° ESE visible
25 Jan ? 18:04:19 10° NNE 18:08:02 85° ESE 18:11:43 10° SSW visible
26 Jan ? 04:50:08 10° S 04:53:42 52° W 04:57:19 10° NNW visible
26 Jan ? 17:41:33 10° NNE 17:45:11 52° E 17:48:46 10° S visible
27 Jan ? 04:27:11 10° SSE 04:30:51 84° WSW 04:34:33 10° NNW visible
27 Jan ? 06:03:04 10° WSW 06:05:01 14° W 06:06:57 10° NW visible
27 Jan ? 17:18:52 10° NNE 17:22:15 33° E 17:25:36 10° SSE visible
28 Jan ? 04:04:25 10° SSE 04:08:02 61° ENE 04:11:41 10° N visible
28 Jan ? 05:39:07 10° SW 05:41:56 21° W 05:44:47 10° NW visible
28 Jan ? 16:56:20 10° NE 16:59:15 22° E 17:02:09 10° SE visible
28 Jan ? 18:29:29 10° N 18:33:07 58° WNW 18:36:43 10° SSW visible
29 Jan ? 05:15:37 10° SSW 05:18:55 31° W 05:22:16 10° NNW visible
29 Jan ? 16:34:06 10° NE 16:36:11 14° E 16:38:15 10° ESE visible
29 Jan ? 18:06:36 10° NNE 18:10:18 88° E 18:13:59 10° SSW visible
30 Jan ? 04:52:24 10° S 04:55:58 50° W 04:59:35 10° NNW visible
30 Jan ? 17:43:48 10° NNE 17:47:26 55° E 17:51:02 10° S visible
31 Jan ? 04:29:25 10° SSE 04:33:05 81° WSW 04:36:48 10° NNW visible
31 Jan ? 06:05:27 10° WSW 06:07:16 13° W 06:09:06 10° NW visible
31 Jan ? 17:21:05 10° NNE 17:24:30 34° E 17:27:52 10° SSE visible
01 Feb ? 04:06:38 10° SSE 04:10:15 64° ENE 04:13:55 10° NNW visible
01 Feb ? 05:41:24 10° SW 05:44:10 20° W 05:46:57 10° NW visible
01 Feb ? 16:58:31 10° NE 17:01:29 22° E 17:04:25 10° SE visible
